Wind_Speed
3 4 9 8 2 1 4 7 4 1 4 7 8 6 8 3 6 4 4 17 29 35 35 33 32 30 29 28 25 23 20 18 18 19 18 20 19 18 17 18 18 18 19 20 21 21 22 23 23
3 4 11 2 3 4 5 5 13 9 4 3 7 3 2 5 8 4 1 23 32 36 36 33 33 31 30 28 26 23 21 20 19 20 20 21 21 19 19 18 18 19 21 21 21 22 21 20 19
4 9 7 3 4 7 2 2 5 6 12 6 3 8 3 4 8 4 5 23 33 37 35 33 32 31 30 28 26 24 22 21 21 21 21 21 20 20 20 20 19 20 18 20 21 20 19 17 15
4 6 3 5 13 2 1 3 2 10 24 13 6 5 4 15 4 9 10 23 34 39 36 35 33 32 31 29 27 25 23 23 23 22 22 21 20 21 21 21 19 19 20 20 19 18 16 16 15
6 3 5 7 12 3 1 6 6 3 6 17 13 7 5 6 21 16 14 24 36 40 37 36 34 32 30 29 27 27 26 24 23 23 22 21 21 22 22 21 20 19 20 20 19 17 15 14 14
4 4 7 11 9 1 3 12 4 11 9 6 9 16 18 15 7 14 18 30 38 42 38 38 35 33 30 28 28 28 27 25 24 23 22 22 22 22 22 21 19 20 20 19 18 16 14 13 14
2 4 10 11 2 1 1 14 10 11 13 8 8 5 14 17 13 13 18 32 40 43 39 39 36 33 31 29 28 28 28 27 25 23 22 23 23 22 21 20 21 21 20 19 18 15 13 13 14
3 1 7 8 9 10 11 17 12 11 13 17 7 5 2 11 12 14 21 31 40 41 36 40 37 34 33 30 28 28 28 28 26 24 24 24 23 22 21 20 22 22 20 19 17 14 14 14 15
2 0 3 6 12 7 14 11 12 19 8 13 6 3 13 9 5 15 22 27 32 34 35 39 37 35 34 32 30 27 28 29 26 25 25 24 24 23 23 21 22 22 20 19 17 15 14 14 16
4 0 1 5 2 3 12 8 17 14 24 10 17 16 14 9 4 16 25 29 34 38 36 41 40 37 35 34 31 30 30 30 28 26 26 26 26 24 23 22 23 23 21 19 17 15 14 14 15
2 3 5 4 4 4 8 14 3 8 8 2 19 30 24 17 8 13 21 30 35 41 39 39 41 37 36 36 35 33 33 32 31 28 28 28 27 26 25 25 26 25 23 20 18 17 15 15 15
2 1 2 7 9 7 9 10 8 15 14 25 27 22 24 21 18 13 22 26 34 42 41 38 41 40 38 37 38 37 35 34 33 30 31 30 29 29 28 26 26 25 22 19 19 18 16 15 15
1 2 8 13 21 17 17 16 14 18 21 25 26 28 23 22 22 16 19 28 33 38 40 39 39 40 40 39 38 39 38 36 34 33 31 31 31 31 30 27 26 25 23 22 20 19 17 17 16
7 11 13 15 19 13 13 19 16 16 18 24 23 28 22 18 22 18 12 22 30 33 40 38 41 42 41 42 41 40 38 36 35 34 34 33 32 33 30 29 28 26 25 23 21 20 18 17 17
8 6 9 2 5 5 8 9 10 23 29 25 21 22 18 12 15 13 9 17 28 32 35 42 40 40 41 40 43 42 39 38 37 35 35 34 34 33 31 30 30 27 26 25 23 21 19 18 18
5 2 5 6 6 7 1 10 13 21 18 17 19 7 9 8 16 10 9 13 24 31 35 36 39 40 41 41 41 43 41 39 37 37 35 36 35 33 33 32 30 30 28 27 25 24 22 20 19
7 4 8 9 13 6 4 11 8 20 9 13 7 4 9 11 11 16 9 9 18 30 37 37 36 38 39 42 43 43 41 39 38 37 37 37 36 35 33 35 32 31 29 28 27 25 24 23 22
6 5 6 11 8 9 12 12 6 19 19 11 11 9 4 9 17 21 13 7 9 23 37 36 35 37 36 38 42 43 40 39 38 37 38 38 37 34 35 34 35 32 31 30 30 27 26 24 23
6 5 8 8 8 7 10 7 11 13 20 18 17 18 14 15 16 17 17 8 5 12 27 34 33 33 34 36 40 44 42 40 39 39 40 39 38 37 37 37 36 33 32 32 32 30 28 27 26
1 2 5 11 2 7 7 3 8 15 16 19 20 20 21 16 16 21 23 14 6 7 15 28 30 33 31 33 40 41 42 42 39 40 39 39 38 37 34 35 35 33 34 35 35 33 34 31 30
2 2 4 8 14 3 6 1 7 9 16 21 24 21 22 22 19 23 24 23 9 1 7 20 29 30 31 33 35 35 37 38 39 39 41 39 38 37 35 35 36 35 34 36 36 36 36 35 34
4 6 7 13 8 3 6 3 5 10 10 18 24 28 28 27 19 16 22 21 19 13 1 6 19 24 28 27 32 36 35 38 36 40 38 39 38 37 35 34 35 37 35 37 38 37 39 38 35
7 9 12 7 3 1 7 1 5 6 11 19 22 23 26 24 22 16 13 18 20 17 13 5 10 17 21 26 28 29 33 27 31 35 36 37 38 39 37 37 37 37 37 37 38 39 41 40 37
7 4 1 1 1 3 3 3 4 5 6 11 18 21 24 21 22 18 12 12 13 17 17 7 4 15 17 19 19 18 21 27 29 27 28 34 33 40 40 40 38 37 37 38 38 39 41 41 39
9 5 3 5 5 2 5 2 5 4 4 4 14 19 21 24 22 23 18 14 15 14 17 11 12 7 17 17 21 20 17 20 23 23 25 27 28 40 46 42 41 41 39 40 39 41 42 44 44
4 4 4 2 3 4 5 4 4 4 6 10 12 14 19 22 23 23 20 17 15 13 11 11 14 13 11 13 17 17 18 16 18 21 22 26 27 32 39 29 42 42 41 43 42 43 45 44 45
4 5 3 3 0 1 4 5 6 3 3 11 17 18 19 23 23 21 20 18 17 12 13 13 9 11 6 5 15 12 15 17 19 24 22 22 24 30 28 36 29 43 45 44 45 45 50 46 46
4 3 3 3 5 5 4 4 3 7 8 6 11 21 21 20 20 20 21 19 17 16 12 11 11 10 10 8 2 11 21 16 16 21 24 21 22 23 28 35 36 26 37 48 48 47 48 51 49
4 4 6 5 3 3 2 4 6 6 5 8 16 17 15 18 19 20 20 19 16 14 13 12 12 9 7 6 5 6 8 12 15 19 21 20 25 23 26 32 32 43 38 47 45 50 50 50 51
4 4 3 4 5 2 2 5 4 8 10 10 20 18 14 11 16 18 20 18 16 15 12 12 12 12 13 11 7 6 9 10 10 14 20 19 27 24 31 31 32 35 38 40 43 48 45 48 54
Wind_Direction
230 190 116 123 145 121 210 231 237 202 209 221 170 164 195 171 172 201 210 180 182 178 175 171 174 176 175 176 176 178 176 174 170 162 159 158 156 151 144 139 134 130 133 130 132 129 126 123 124
221 191 149 99 194 190 225 230 197 196 215 244 174 166 213 231 228 270 225 181 179 180 177 173 175 177 176 177 177 178 177 175 171 165 162 160 159 155 150 146 140 141 138 138 139 133 130 127 126
238 178 159 163 209 210 225 263 152 282 261 319 222 219 213 241 233 243 258 186 179 182 180 175 175 177 178 178 178 176 174 170 167 164 162 160 162 157 154 150 148 151 146 140 138 135 134 131 131
218 200 223 223 216 258 141 14 164 195 261 272 275 269 227 230 244 233 245 189 180 183 182 177 176 179 180 179 177 175 172 169 165 165 164 162 161 161 158 155 153 154 149 142 140 140 138 136 137
219 234 240 231 228 176 7 326 333 254 207 251 248 277 269 225 227 247 234 202 187 184 183 178 178 181 180 181 176 174 171 169 166 164 163 163 163 163 163 160 157 156 148 144 144 142 141 141 140
221 233 237 243 237 186 238 257 309 275 253 241 198 236 261 266 274 245 220 198 189 184 183 181 180 182 181 180 178 175 172 169 168 168 168 170 167 168 165 162 160 157 152 148 146 143 142 145 147
6 296 255 255 238 124 357 333 253 264 277 269 247 204 246 264 268 258 225 193 188 189 183 182 181 182 181 182 179 177 173 171 171 172 173 173 173 172 171 167 162 161 157 153 150 146 143 142 145
6 344 266 269 264 268 11 340 350 8 280 279 268 244 319 309 272 227 208 194 188 187 186 183 182 183 181 182 182 178 174 173 173 175 175 175 176 176 174 170 168 165 162 160 157 151 145 140 140
59 125 281 277 267 307 10 353 327 323 289 301 268 113 360 338 285 198 191 190 186 185 186 187 185 184 183 181 182 177 175 176 176 177 177 176 180 179 177 176 173 172 171 167 164 155 148 143 141
69 200 272 11 338 343 331 337 324 341 333 310 289 257 321 0 230 214 193 190 187 188 190 190 189 187 183 183 180 179 180 180 180 180 178 183 183 184 181 178 180 179 179 175 171 159 154 148 145
25 196 356 21 330 308 315 310 287 313 307 98 331 318 323 341 302 231 217 208 201 195 193 194 190 187 184 185 181 182 184 183 184 183 183 186 187 187 187 182 184 186 186 180 173 169 165 160 155
26 235 351 302 309 306 282 293 278 256 257 279 312 314 318 327 333 281 220 222 204 193 194 194 193 191 189 189 185 186 187 188 187 185 187 189 191 192 191 189 190 193 188 183 181 178 173 168 166
104 285 313 296 296 285 277 260 257 261 278 292 293 308 305 318 326 305 239 222 222 199 196 198 196 196 191 192 190 192 192 191 191 189 191 192 194 197 196 194 196 195 190 191 189 186 182 179 176
311 300 285 291 276 267 268 268 253 271 278 285 289 299 299 321 321 316 261 223 215 221 199 198 204 201 196 196 195 197 194 194 194 193 194 196 200 205 198 197 199 196 195 196 195 193 192 188 184
297 316 321 298 307 260 289 279 252 257 265 265 269 286 313 310 330 321 297 231 212 214 214 202 203 204 205 200 200 202 199 197 198 198 199 200 205 209 206 201 201 198 198 199 197 198 198 196 191
359 20 351 311 330 294 173 280 271 300 265 252 259 284 285 338 7 336 302 252 221 210 214 217 210 207 207 207 203 207 205 201 201 201 203 205 209 212 209 209 205 199 201 200 200 201 199 199 197
13 318 327 315 330 346 339 297 326 328 297 235 123 207 242 353 6 10 337 280 230 216 209 216 212 211 216 212 211 213 209 204 205 205 207 211 210 213 216 207 208 201 200 203 204 202 204 201 201
313 337 319 293 311 338 306 284 351 9 46 69 82 75 54 13 16 17 359 316 234 224 209 211 216 212 216 215 217 217 211 207 210 208 210 214 211 216 213 214 210 203 203 203 204 207 204 208 206
278 253 257 283 297 340 306 23 19 11 39 34 36 32 20 44 13 18 23 13 235 224 213 205 208 216 217 219 217 214 210 212 213 212 215 215 215 216 216 217 208 206 207 208 208 205 209 205 205
9 329 297 290 260 330 295 76 28 36 31 32 28 14 25 5 19 21 23 28 24 226 196 203 211 210 214 225 222 220 217 211 215 210 216 217 219 224 224 221 216 211 207 209 210 211 206 209 205
306 184 312 319 321 333 291 201 28 348 19 18 28 21 22 359 358 18 16 29 23 107 162 189 209 212 213 222 221 221 218 213 214 217 215 222 221 224 225 223 221 216 216 214 213 216 216 212 205
308 186 310 305 327 312 3 321 28 339 354 15 6 6 8 3 359 3 13 19 27 33 32 150 195 215 216 221 222 216 221 204 221 218 220 221 226 225 226 228 224 225 221 219 217 220 220 216 215
244 318 289 272 246 5 340 162 328 8 351 348 360 355 1 3 355 14 5 5 18 23 18 109 180 206 208 215 226 220 218 219 218 215 226 225 226 228 228 228 230 229 230 226 223 223 221 220 223
301 353 87 286 59 46 289 101 333 5 321 321 336 354 359 0 1 16 23 3 4 29 28 24 102 193 204 209 227 217 229 225 224 233 238 225 244 234 229 230 232 235 233 228 230 229 228 227 229
13 25 355 5 16 256 343 54 249 271 267 291 320 333 359 7 14 10 8 358 13 19 35 5 35 158 193 211 217 220 222 235 234 240 245 235 239 237 236 227 233 233 235 232 233 232 232 233 232
3 98 123 247 352 299 348 351 293 221 284 315 336 343 5 13 14 13 7 7 353 10 21 27 4 55 173 209 213 218 225 228 236 247 253 253 255 254 246 256 237 236 238 236 236 237 235 235 236
305 39 193 108 16 334 307 296 304 317 296 341 350 352 356 8 9 10 11 11 4 359 359 21 4 16 38 241 234 218 226 233 229 236 242 249 256 254 253 258 258 243 236 241 241 242 237 239 239
109 167 30 20 29 348 318 289 266 332 317 316 336 345 348 356 358 6 11 12 11 13 350 346 2 19 9 15 337 221 232 240 241 241 243 248 260 262 259 254 259 249 255 247 243 245 246 241 242
344 4 39 107 96 141 307 279 216 232 252 294 308 331 337 342 351 1 7 11 14 12 7 353 338 346 348 347 334 303 258 239 239 244 249 243 238 248 252 259 255 257 260 252 252 245 244 251 249
122 175 135 104 283 70 154 274 192 237 253 272 299 318 329 339 349 356 357 4 17 25 20 8 359 341 332 329 326 307 292 282 274 251 246 246 247 252 242 248 262 262 254 249 255 253 257 261 254
Height
1509 1511 1511 1512 1521 1522 1515 1507 1499 1500 1500 1495 1495 1496 1496 1494 1498 1503 1491 1492 1499 1501 1505 1509 1514 1518 1522 1525 1529 1533 1536 1539 1542 1545 1547 1549 1552 1555 1556 1558 1560 1561 1563 1564 1565 1566 1567 1569 1570
1509 1510 1512 1512 1517 1519 1506 1494 1491 1495 1493 1493 1494 1495 1496 1494 1493 1491 1491 1491 1496 1501 1505 1509 1513 1517 1521 1525 1528 1533 1536 1540 1542 1545 1548 1550 1553 1555 1557 1560 1561 1563 1564 1565 1567 1568 1570 1571 1573
1508 1509 1511 1511 1509 1506 1504 1495 1494 1495 1494 1496 1495 1494 1495 1493 1491 1491 1490 1492 1495 1500 1504 1508 1512 1517 1521 1524 1528 1531 1535 1539 1542 1545 1548 1551 1553 1555 1558 1561 1563 1564 1565 1567 1568 1570 1572 1573 1576
1510 1511 1510 1504 1499 1500 1496 1497 1493 1496 1495 1496 1496 1493 1492 1491 1491 1491 1491 1493 1495 1499 1503 1507 1511 1516 1520 1524 1527 1530 1535 1539 1543 1546 1549 1551 1554 1556 1559 1561 1563 1566 1567 1569 1571 1573 1574 1575 1577
1506 1505 1503 1495 1494 1498 1497 1495 1492 1495 1493 1494 1496 1492 1490 1489 1489 1490 1491 1492 1493 1498 1502 1507 1511 1515 1520 1523 1527 1531 1534 1539 1543 1546 1549 1552 1554 1557 1559 1561 1564 1567 1569 1571 1572 1574 1575 1577 1578
1505 1503 1497 1494 1494 1497 1498 1498 1495 1493 1492 1493 1495 1492 1489 1487 1488 1489 1489 1490 1493 1496 1501 1506 1510 1514 1520 1523 1527 1530 1534 1538 1543 1546 1549 1553 1555 1558 1561 1562 1565 1567 1570 1572 1574 1576 1576 1578 1578
1505 1503 1490 1492 1496 1497 1497 1497 1495 1496 1492 1491 1492 1489 1486 1487 1487 1487 1487 1489 1492 1496 1500 1505 1510 1515 1519 1523 1527 1530 1534 1538 1542 1547 1550 1553 1555 1558 1562 1564 1566 1568 1571 1573 1575 1577 1577 1578 1579
1507 1508 1499 1493 1494 1496 1505 1499 1498 1495 1490 1492 1490 1487 1488 1486 1486 1485 1485 1488 1492 1496 1501 1504 1509 1513 1517 1522 1526 1530 1533 1537 1542 1546 1550 1553 1556 1559 1562 1564 1567 1569 1571 1573 1575 1577 1578 1579 1580
1508 1512 1508 1503 1500 1500 1507 1506 1498 1497 1496 1492 1489 1487 1490 1487 1487 1486 1484 1488 1492 1496 1500 1503 1507 1511 1515 1520 1525 1529 1533 1536 1541 1546 1549 1553 1556 1558 1561 1564 1567 1569 1571 1573 1575 1577 1579 1580 1580
1510 1513 1510 1512 1511 1507 1510 1510 1507 1502 1496 1492 1487 1485 1487 1486 1485 1487 1485 1484 1489 1493 1497 1499 1505 1509 1513 1518 1522 1528 1531 1535 1539 1543 1548 1551 1554 1558 1561 1564 1568 1569 1572 1573 1576 1578 1580 1581 1582
1512 1512 1512 1511 1513 1513 1511 1509 1509 1506 1498 1497 1497 1488 1487 1486 1485 1484 1487 1485 1483 1488 1494 1497 1501 1507 1511 1515 1519 1524 1528 1532 1536 1541 1545 1549 1552 1556 1559 1562 1567 1568 1571 1573 1576 1578 1580 1582 1583
1515 1513 1514 1513 1511 1510 1511 1510 1504 1502 1499 1497 1495 1493 1489 1487 1485 1482 1484 1487 1488 1488 1491 1496 1500 1505 1508 1513 1516 1521 1525 1529 1533 1538 1542 1546 1550 1553 1557 1560 1564 1568 1571 1574 1576 1578 1580 1582 1583
1514 1513 1511 1510 1507 1504 1504 1503 1504 1497 1496 1494 1492 1492 1488 1486 1482 1481 1479 1481 1487 1487 1489 1494 1498 1504 1507 1512 1515 1518 1522 1526 1531 1535 1540 1544 1547 1550 1554 1558 1562 1567 1570 1573 1575 1577 1579 1581 1583
1514 1511 1508 1502 1500 1500 1500 1496 1495 1489 1492 1491 1489 1488 1488 1485 1479 1475 1472 1477 1483 1485 1486 1490 1495 1500 1503 1508 1512 1515 1518 1524 1528 1533 1537 1541 1545 1547 1552 1556 1560 1565 1568 1571 1574 1577 1579 1581 1582
1514 1511 1503 1502 1499 1499 1497 1493 1490 1487 1482 1485 1485 1486 1487 1483 1478 1471 1471 1472 1475 1481 1484 1486 1492 1496 1501 1505 1509 1513 1516 1520 1525 1530 1535 1539 1541 1545 1550 1553 1556 1562 1566 1569 1572 1576 1578 1581 1582
1516 1514 1513 1500 1500 1496 1496 1492 1484 1481 1479 1481 1483 1482 1485 1482 1477 1473 1471 1470 1471 1475 1480 1483 1487 1492 1497 1503 1507 1509 1513 1517 1522 1527 1531 1535 1538 1542 1547 1551 1554 1558 1563 1567 1570 1573 1576 1579 1582
1528 1526 1518 1507 1501 1500 1497 1490 1484 1480 1473 1477 1480 1482 1482 1479 1474 1471 1469 1467 1467 1470 1474 1481 1485 1489 1493 1499 1504 1506 1510 1513 1518 1523 1528 1531 1535 1539 1543 1546 1551 1554 1559 1564 1569 1571 1575 1577 1579
1534 1533 1525 1517 1504 1501 1497 1492 1489 1484 1476 1479 1480 1478 1480 1476 1474 1471 1468 1465 1464 1467 1470 1475 1481 1485 1490 1496 1500 1502 1507 1511 1515 1519 1524 1528 1532 1536 1540 1544 1548 1553 1556 1561 1564 1569 1572 1575 1578
1528 1524 1524 1512 1506 1503 1497 1496 1493 1490 1485 1483 1479 1476 1477 1474 1477 1474 1471 1467 1463 1465 1467 1472 1477 1482 1485 1490 1495 1498 1501 1507 1511 1515 1519 1524 1529 1533 1535 1540 1545 1550 1553 1557 1562 1564 1569 1572 1575
1527 1535 1528 1509 1503 1504 1495 1496 1496 1495 1492 1489 1487 1485 1478 1481 1477 1474 1469 1464 1463 1463 1465 1467 1472 1477 1480 1485 1490 1495 1497 1502 1506 1509 1515 1520 1524 1529 1533 1537 1541 1546 1549 1553 1557 1561 1563 1568 1571
1530 1534 1524 1517 1506 1501 1498 1494 1499 1499 1497 1491 1490 1494 1484 1484 1479 1475 1470 1466 1465 1463 1462 1465 1468 1474 1476 1480 1486 1492 1494 1498 1502 1506 1510 1515 1519 1524 1528 1533 1537 1541 1546 1548 1552 1556 1559 1561 1566
1530 1520 1519 1517 1514 1513 1506 1497 1502 1504 1499 1498 1495 1490 1488 1484 1480 1477 1473 1472 1472 1465 1464 1461 1466 1469 1472 1476 1480 1485 1490 1491 1496 1501 1506 1509 1514 1519 1523 1528 1532 1536 1540 1543 1546 1550 1555 1558 1561
1526 1518 1517 1514 1513 1514 1515 1502 1504 1506 1500 1500 1499 1499 1493 1491 1486 1477 1475 1473 1473 1465 1463 1460 1463 1466 1470 1474 1476 1479 1485 1488 1493 1496 1502 1504 1508 1513 1518 1523 1527 1530 1534 1539 1541 1544 1547 1553 1558
1521 1518 1514 1513 1518 1523 1520 1526 1515 1513 1514 1506 1502 1500 1498 1495 1488 1478 1477 1477 1474 1468 1462 1459 1465 1465 1465 1471 1471 1476 1481 1485 1489 1493 1495 1500 1504 1507 1512 1517 1522 1525 1528 1533 1536 1539 1543 1547 1552
1526 1528 1526 1519 1524 1518 1518 1515 1520 1516 1513 1511 1505 1502 1496 1491 1489 1483 1477 1478 1474 1471 1467 1470 1466 1462 1463 1470 1473 1475 1478 1482 1486 1489 1493 1494 1499 1501 1504 1510 1514 1518 1522 1526 1530 1533 1536 1540 1544
1541 1545 1546 1541 1529 1528 1526 1529 1517 1516 1512 1510 1508 1503 1497 1494 1490 1485 1483 1477 1476 1471 1474 1471 1465 1459 1464 1470 1470 1472 1474 1477 1480 1483 1488 1490 1493 1496 1500 1504 1508 1512 1515 1519 1523 1527 1529 1533 1536
1537 1545 1547 1557 1562 1545 1548 1530 1516 1514 1514 1510 1505 1502 1500 1494 1492 1491 1487 1478 1477 1471 1467 1464 1469 1462 1462 1463 1467 1469 1471 1474 1476 1479 1482 1486 1488 1491 1492 1497 1499 1503 1506 1510 1515 1518 1521 1525 1528
1539 1545 1544 1554 1548 1540 1544 1552 1524 1517 1511 1508 1506 1501 1495 1495 1495 1491 1485 1481 1475 1469 1470 1469 1464 1463 1462 1462 1464 1466 1468 1471 1473 1475 1478 1480 1482 1485 1486 1490 1492 1494 1500 1503 1506 1509 1512 1515 1519
1544 1548 1559 1563 1573 1565 1552 1528 1522 1520 1513 1507 1502 1501 1498 1493 1490 1486 1485 1480 1477 1473 1469 1466 1467 1462 1466 1465 1462 1463 1465 1468 1470 1471 1473 1475 1476 1478 1481 1482 1485 1488 1490 1492 1496 1499 1503 1506 1510
1553 1558 1563 1554 1562 1581 1569 1536 1513 1511 1509 1506 1499 1496 1497 1495 1490 1485 1481 1478 1479 1478 1473 1468 1466 1465 1462 1461 1460 1462 1464 1465 1465 1466 1469 1469 1472 1473 1474 1477 1478 1479 1482 1484 1487 1491 1495 1496 1499